Location: *
(51.0333°S, 178.4667°E)
Time: 20:21:39
(UTC+00:00)

STARLINK-56 - Pass Details

Date: 15 November 2019
Orbit: 529 x 530 km, 53.0° (Epoch: 06 December)

Event Time Altitude Azimuth Distance (km) Brightness Sun altitude
Rises 08:34:56 0° 279° (W) 2,682 7.7 -8.4°
Reaches altitude 10° 08:37:09 10° 276° (W) 1,795 6.8 -8.6°
Maximum altitude 08:41:14 73° 190° (S) 568 3.8 -9.1°
Drops below altitude 10° 08:45:19 10° 105° (ESE) 1,801 6.0 -9.5°
Enters shadow 08:48:32 -3° 102° (ESE) 3,089 7.1 -9.9°
